Date,TemperatureHighF,TemperatureAvgF,TemperatureLowF,DewpointHighF,DewpointAvgF,DewpointLowF,HumidityHigh,HumidityAvg,HumidityLow,PressureMaxIn,PressureMinIn,WindSpeedMaxMPH,WindSpeedAvgMPH,GustSpeedMaxMPH,PrecipitationSumIn
2013-1-1,25.2,22.7,20.4,19.0,16.4,13.1,84,77,69,30.19,30.07,0,-705,0,0.00
2013-1-2,26.4,23.8,17.6,22.7,18.7,11.5,86,81,75,30.18,30.11,0,-865,0,0.00
2013-1-3,29.9,25.8,19.7,26.2,21.5,12.8,90,83,74,30.19,30.06,0,-826,0,0.00
2013-1-4,33.4,29.8,25.9,27.7,25.0,21.2,86,82,76,30.19,30.05,0,-701,0,0.00
2013-1-5,36.1,31.1,22.9,32.3,27.3,20.9,96,86,70,30.23,29.96,0,-689,0,0.00
2013-1-6,36.0,33.5,31.3,34.1,30.3,24.3,100,88,74,30.28,29.86,0,-999,0,0.12
2013-1-7,33.7,31.3,30.1,26.0,25.2,24.3,83,78,69,30.31,30.11,0,-999,0,0.00
2013-1-8,37.4,34.7,32.8,29.9,28.1,26.8,79,76,73,30.16,30.08,0,-841,0,0.00
2013-1-9,44.0,38.9,33.8,35.8,31.7,26.7,85,75,60,30.42,29.98,0,-638,0,0.00
2013-1-10,45.8,37.4,28.9,33.6,30.2,26.3,90,76,57,30.53,30.03,0,-999,0,0.15
2013-1-11,52.4,46.0,36.6,51.2,44.5,33.8,97,94,88,30.03,29.71,0,-988,0,0.57
2013-1-12,55.4,47.9,36.8,49.3,42.7,34.1,91,82,62,29.94,29.73,0,-778,0,0.05
2013-1-13,36.7,31.3,24.7,34.0,29.1,20.0,95,92,81,30.12,29.82,0,-999,0,0.25
2013-1-14,24.9,22.0,19.0,20.3,17.3,15.2,87,82,76,30.45,30.12,0,-766,0,0.00
2013-1-15,31.0,24.4,19.2,22.0,18.9,15.3,88,80,67,30.44,30.16,0,-658,0,0.00
2013-1-16,34.9,28.4,20.1,30.1,23.2,16.6,92,81,66,30.15,29.79,0,-752,0,0.01
2013-1-17,34.8,27.5,21.5,29.6,19.1,11.2,81,71,63,30.36,29.99,0,-717,0,0.00
2013-1-18,39.8,22.9,19.3,30.8,-1.9,-99.9,79,57,62,30.42,29.88,0,-753,0,0.00
2013-1-19,44.3,41.4,38.3,37.5,33.5,24.3,81,74,55,29.89,29.59,0,-698,0,0.00
2013-1-20,37.3,18.4,15.3,23.8,12.3,9.9,85,77,55,30.22,29.62,0,-692,0,0.00
2013-1-21,16.9,11.1,3.9,12.4,7.5,0.4,96,85,75,30.20,30.05,0,-999,0,0.00
2013-1-22,9.6,4.5,0.1,6.0,-7.8,-99.9,96,77,83,30.34,30.19,0,-736,0,0.00
2013-1-23,18.0,11.0,3.4,15.8,-1.9,-99.9,91,79,85,30.34,30.09,0,-731,0,0.00
2013-1-24,17.9,9.2,3.4,11.0,-11.1,-99.9,88,67,73,30.66,30.24,0,-679,0,0.03
2013-1-25,22.5,17.4,12.1,20.5,13.3,5.7,92,84,74,30.49,29.99,0,-706,0,0.00
2013-1-26,27.2,23.1,19.7,22.4,19.5,16.7,92,86,77,30.45,30.09,0,-692,0,0.01
2013-1-27,21.1,20.2,19.5,18.4,17.4,16.7,90,89,87,30.45,30.41,0,-999,0,0.00
2013-2-3,17.6,17.0,16.0,15.2,14.7,13.8,91,90,90,30.04,29.99,0,-862,0,0.00
2013-2-4,23.4,17.7,14.0,20.1,15.2,11.1,92,90,87,30.04,29.91,0,-654,0,0.03
2013-2-5,28.5,14.6,14.2,27.3,-29.7,-99.9,95,52,88,30.03,29.79,0,-760,0,0.00
2013-2-6,33.0,25.5,17.4,25.6,21.0,15.5,93,83,71,30.27,30.03,0,-616,0,0.11
2013-2-7,32.9,29.6,27.2,31.9,26.8,21.9,97,89,79,30.22,29.86,0,-728,0,0.10
2013-2-8,31.1,26.6,18.1,29.8,24.1,15.1,97,90,80,30.39,29.86,0,-678,0,0.17
2013-2-9,31.7,21.0,11.8,23.4,14.3,-99.9,92,81,67,30.44,30.21,0,-590,0,0.01
2013-2-10,41.8,32.2,23.1,40.5,28.1,18.4,96,85,76,30.21,29.55,0,-623,0,0.27
2013-2-11,45.0,35.0,29.3,42.9,31.7,24.8,96,88,75,29.91,29.50,0,-843,0,0.03
2013-2-12,29.5,28.0,26.6,25.1,23.8,22.3,87,84,81,30.07,29.91,0,-808,0,0.00
2013-2-13,38.7,30.4,23.1,30.3,26.0,20.9,92,84,70,29.93,29.73,0,-624,0,0.02
2013-2-14,38.6,33.4,28.2,34.3,31.0,26.4,95,91,81,29.92,29.62,0,-653,0,0.05
2013-2-15,28.2,23.7,19.8,26.4,19.2,16.3,93,83,70,30.17,29.92,0,-676,0,0.01
2013-2-16,20.5,17.3,10.4,18.1,14.5,8.0,92,89,80,30.14,30.07,0,-891,0,0.00
2013-2-17,23.0,12.8,5.9,14.2,-1.5,-99.9,90,72,64,30.26,30.14,0,-587,0,0.01
2013-2-18,44.9,33.7,17.6,41.8,26.6,11.0,95,75,65,30.16,29.42,0,-701,0,0.26
2013-2-19,42.9,24.3,15.9,41.0,22.1,13.2,94,91,88,30.01,29.37,0,-999,0,0.09
2013-2-20,22.0,18.7,15.3,16.6,14.6,12.6,90,84,76,30.33,30.01,0,-631,0,0.00
2013-2-21,26.4,22.5,20.5,20.3,17.2,15.0,84,80,74,30.41,30.17,0,-627,0,0.00
2013-2-22,32.7,26.4,21.0,31.7,24.2,16.1,96,91,80,30.17,29.85,0,-705,0,0.00
2013-2-23,30.5,28.1,25.3,28.2,24.9,22.4,92,88,76,29.92,29.84,0,-645,0,0.02
2013-2-24,28.6,27.3,26.0,26.0,23.9,23.2,92,87,84,29.97,29.90,0,-999,0,0.00
2013-2-25,39.8,34.1,30.5,26.8,25.2,23.8,76,70,59,30.13,30.08,0,-770,0,0.01
2013-2-26,33.7,31.1,27.9,31.6,26.6,22.3,96,83,71,30.11,29.51,0,-611,0,0.10
2013-2-27,35.6,33.7,32.6,34.8,32.9,31.6,97,97,96,29.62,29.49,0,-999,0,0.27
2013-2-28,36.1,33.1,29.9,34.2,30.3,25.7,97,90,80,30.01,29.62,0,-619,0,0.02
2013-3-1,29.9,27.3,21.7,25.7,21.2,16.4,85,77,69,30.17,30.01,0,-718,0,0.00
2013-3-2,25.6,10.7,14.5,18.2,-39.3,-99.9,88,43,71,30.17,30.11,0,-606,0,0.00
2013-3-3,30.0,22.6,15.1,20.7,16.2,11.6,87,77,63,30.14,30.05,0,-660,0,0.00
2013-3-4,31.8,22.3,14.0,19.6,14.9,11.4,90,74,57,30.16,30.09,0,-920,0,0.00
2013-3-5,32.5,26.8,21.2,26.1,19.7,14.1,87,75,65,30.13,29.86,0,-579,0,0.00
2013-3-6,38.0,32.5,26.6,30.2,27.9,23.3,91,83,72,30.25,29.95,0,-732,0,0.00
2013-3-7,36.4,31.7,25.3,29.8,25.6,20.5,91,79,61,30.43,30.23,0,-612,0,0.00
2013-3-8,39.3,29.8,21.5,27.2,22.8,17.9,86,75,61,30.48,30.39,0,-836,0,0.00
2013-3-9,41.5,36.0,28.3,34.3,28.8,21.7,83,75,68,30.40,29.94,0,-188,0,0.00
2013-3-10,52.0,45.1,40.4,44.5,39.5,34.1,95,81,69,29.94,29.67,0,-474,0,0.33
2013-3-11,51.9,43.8,34.4,48.8,41.6,32.9,97,92,70,29.68,29.47,0,-820,0,0.24
2013-3-12,35.1,31.6,28.3,33.3,28.1,24.2,94,87,74,29.90,29.66,0,-669,0,0.01
2013-3-13,30.1,26.7,23.0,26.3,20.9,17.4,93,79,62,30.27,29.90,0,-774,0,0.06
2013-3-14,37.8,31.1,23.1,27.8,22.7,18.1,83,71,56,30.29,30.10,0,-503,0,0.01
2013-3-15,40.0,35.2,32.5,34.5,32.4,28.2,100,90,80,30.10,29.84,0,-658,0,0.08
2013-3-16,34.2,29.5,25.6,32.9,25.7,20.8,95,86,73,30.09,29.74,0,-702,0,0.04
2013-3-17,31.0,27.4,23.8,23.0,18.6,13.6,79,70,60,30.28,30.09,0,-957,0,0.00
2013-3-18,33.7,28.1,21.7,32.5,24.9,17.3,96,88,76,30.13,29.59,0,-958,0,0.00
2013-3-19,29.0,23.6,19.7,26.4,18.9,16.2,91,83,65,29.99,29.65,0,-645,0,0.00
2013-3-20,27.9,21.3,15.7,17.9,15.4,13.0,90,78,63,30.01,29.95,0,-623,0,0.00
2013-3-21,29.0,23.5,15.2,24.6,19.6,12.9,92,85,74,30.02,29.93,0,-561,0,0.02
2013-3-22,34.1,28.8,25.2,25.5,22.1,19.0,84,76,69,30.07,30.00,0,-632,0,0.04
2013-3-23,35.2,30.1,25.5,27.2,23.9,21.0,89,78,68,30.16,30.06,0,-668,0,0.00
2013-3-24,37.5,30.9,25.4,28.2,24.5,21.4,88,77,64,30.07,29.70,0,-587,0,0.00
2013-3-25,39.2,33.8,30.1,29.9,26.7,23.3,83,75,64,30.00,29.66,0,-681,0,0.00
2013-3-26,40.7,34.7,29.7,34.4,30.6,26.6,91,85,75,30.19,30.00,0,-633,0,0.02
2013-3-27,42.1,36.1,31.2,31.0,28.6,25.1,93,75,56,30.27,30.19,0,-542,0,0.01
2013-3-28,48.1,37.7,30.8,31.3,27.9,25.3,88,69,46,30.32,30.27,0,-514,0,0.00
2013-3-29,48.6,37.3,27.0,33.4,27.6,23.4,91,70,43,30.31,30.24,12,-683,15,0.00
2013-3-30,55.9,40.0,21.8,37.0,29.3,19.8,95,69,39,30.24,29.88,15,-560,19,0.01
2013-3-31,49.2,42.9,36.0,41.6,37.6,31.6,95,82,61,29.88,29.66,17,-596,22,0.04
2013-4-1,36.0,29.7,26.9,32.2,19.5,15.3,86,66,53,30.13,29.78,15,-583,22,0.00
2013-4-2,36.9,30.8,22.8,22.2,18.7,16.4,82,62,45,30.29,30.13,16,-564,22,0.00
2013-4-3,44.1,32.5,22.6,23.3,20.4,17.3,81,62,38,30.47,30.28,11,-684,12,0.00
2013-4-4,51.0,40.0,25.4,30.2,23.7,18.5,80,54,37,30.36,29.96,21,-677,26,0.00
2013-4-5,46.4,38.8,30.1,30.6,26.6,20.5,83,63,37,30.20,29.96,16,-580,21,0.00
2013-4-6,58.3,46.4,34.4,44.5,29.9,20.1,75,53,42,30.19,29.64,17,-861,31,0.03
2013-4-7,58.7,44.5,38.2,48.1,37.6,31.3,91,77,63,30.01,29.55,11,-732,17,0.10
2013-4-8,55.7,41.2,36.3,52.7,38.0,31.2,96,89,78,30.00,29.64,6,-971,6,0.43
2013-4-9,48.2,42.6,37.7,47.4,41.7,36.7,98,97,95,30.04,29.85,0,-999,0,1.42
2013-4-10,42.3,40.5,37.3,41.0,38.3,33.7,95,92,86,30.00,29.82,25,-729,25,0.46
2013-4-11,38.3,36.7,35.5,36.5,34.5,32.7,94,92,83,29.97,29.62,0,-999,0,1.47
2013-4-12,40.8,37.3,33.9,37.9,35.0,32.6,96,92,82,29.77,29.56,24,-705,31,0.31
2013-4-13,38.7,36.4,35.1,35.3,31.4,28.9,95,82,69,29.98,29.78,18,-601,28,0.04
2013-4-14,52.9,40.0,32.7,42.6,34.9,29.1,94,83,66,30.09,29.81,11,-655,17,0.09
2013-4-15,63.9,55.0,46.3,56.4,49.0,39.8,95,81,72,29.93,29.78,28,-615,31,0.74
2013-4-16,47.6,44.4,40.2,45.0,38.3,34.9,96,80,63,30.25,29.90,13,-583,17,0.30
2013-4-17,50.1,45.0,41.1,44.8,38.4,33.5,94,78,62,30.32,29.91,0,-999,0,1.42
2013-4-18,62.7,55.8,46.1,60.7,54.1,44.5,97,94,85,29.97,29.38,0,-999,0,2.74
2013-4-19,54.6,38.4,33.5,52.6,33.9,27.8,94,84,72,29.77,29.40,40,-686,43,0.18
2013-4-20,36.9,31.9,28.4,28.6,22.5,18.9,83,68,49,30.46,29.77,13,-655,18,0.04
2013-4-21,51.2,39.4,28.1,34.0,26.9,19.0,76,62,43,30.59,30.40,9,-964,11,0.00
2013-4-22,63.8,49.5,34.5,41.0,34.7,29.5,82,59,37,30.40,30.11,5,-488,12,0.00
2013-4-23,63.8,49.6,39.8,51.4,42.3,35.4,95,77,54,30.11,29.83,0,-999,0,0.49
2013-4-24,43.7,38.4,33.7,38.1,31.5,27.0,94,78,52,30.10,29.85,12,-626,16,0.16
2013-4-25,48.0,41.5,34.4,38.0,34.0,29.9,94,75,58,30.33,30.03,17,-840,21,0.15
2013-4-26,64.1,49.5,35.3,45.2,36.8,29.3,80,63,45,30.40,30.25,23,-540,27,0.00
2013-4-27,68.7,57.6,46.0,50.2,43.2,39.2,78,60,36,30.29,30.04,7,-476,10,0.00
2013-4-28,63.6,57.6,52.8,55.5,48.0,39.3,90,71,48,30.04,29.80,5,-516,8,0.00
2013-4-29,69.7,58.1,44.4,57.9,51.7,43.3,97,81,60,29.91,29.81,16,-601,17,0.00
2013-4-30,77.7,65.9,56.9,64.5,58.0,52.8,89,76,60,29.94,29.82,21,-810,30,0.08
2013-5-1,84.0,72.8,61.0,63.7,59.3,55.1,82,64,45,30.14,29.94,16,-467,22,0.00
2013-5-2,80.6,67.4,56.3,62.8,57.0,50.9,82,70,48,30.15,30.04,16,-500,17,0.00
2013-5-3,78.9,63.5,51.3,61.7,54.3,42.5,94,74,41,30.08,29.94,12,-503,16,0.00
2013-5-4,73.7,65.7,58.4,53.4,46.0,39.3,62,50,33,30.04,29.95,11,-528,15,0.00
2013-5-5,74.2,63.5,53.5,52.4,44.4,37.6,68,51,32,30.04,29.96,9,-466,15,0.00
2013-5-6,74.2,63.8,52.2,50.9,42.5,37.8,66,47,29,30.03,29.94,6,-645,10,0.00
2013-5-7,77.8,67.5,55.3,57.7,49.9,42.1,72,54,41,30.02,29.94,7,-476,10,0.00
2013-5-8,78.6,67.8,56.9,58.0,52.1,46.8,79,59,40,30.01,29.92,10,-503,14,0.00
2013-5-9,79.9,64.7,50.0,56.6,49.0,43.8,87,60,33,29.95,29.85,11,-515,12,0.02
2013-5-10,57.5,50.3,45.8,56.1,48.3,43.4,95,93,87,29.91,29.73,12,-675,20,0.47
2013-5-11,53.7,45.4,37.0,49.9,42.0,34.7,95,88,65,29.94,29.75,16,-730,23,0.05
2013-5-12,46.0,40.3,37.1,37.1,31.8,28.4,92,72,54,30.12,29.93,13,-780,16,0.00
2013-5-13,53.2,43.9,34.5,35.5,30.9,26.9,88,63,39,30.19,30.06,11,-608,15,0.00
2013-5-14,72.8,68.2,64.6,57.2,55.3,53.5,73,64,53,29.78,29.61,18,-332,21,0.00
2013-5-15,75.3,69.0,61.5,61.6,51.3,42.5,72,54,38,29.79,29.53,13,-472,16,0.00
2013-5-16,79.0,65.4,49.4,55.2,48.8,44.0,86,57,35,29.97,29.78,12,-712,17,0.00
2013-5-17,68.6,61.0,52.4,52.5,46.5,41.3,68,59,44,30.08,29.97,8,-943,11,0.00
2013-5-18,80.4,67.9,55.9,63.5,54.4,44.5,76,63,50,30.09,29.95,7,-685,16,0.00
2013-5-19,85.9,73.4,59.4,66.8,59.3,47.6,81,62,49,29.97,29.78,14,-574,17,0.00
2013-5-20,87.3,77.2,67.6,72.0,65.4,60.7,88,69,43,29.82,29.69,27,-433,35,0.00
2013-5-21,79.8,71.4,62.9,67.8,64.8,61.2,96,80,63,29.75,29.65,23,-472,28,0.45
2013-5-22,69.4,64.6,56.6,66.5,62.4,55.5,98,93,85,29.68,29.59,0,-999,0,0.59
2013-5-23,56.5,50.6,42.3,55.6,48.8,39.3,98,94,82,30.22,29.68,23,-547,30,0.46
2013-5-24,57.0,46.7,35.5,46.9,40.1,33.4,93,79,64,30.39,30.22,7,-948,7,0.01
2013-5-25,64.0,52.5,40.5,46.3,41.8,38.6,94,70,43,30.40,30.28,6,-473,10,0.00
2013-5-26,68.3,57.8,46.9,49.4,42.8,38.8,79,59,40,30.33,30.18,6,-444,9,0.00
2013-5-27,57.6,53.6,51.4,50.8,45.8,40.1,94,76,54,30.19,29.92,10,-659,20,0.10
2013-5-28,74.9,63.3,52.6,69.0,61.2,50.9,98,93,81,29.93,29.73,11,-937,11,0.86
2013-5-29,78.8,69.3,62.5,69.5,65.0,59.9,95,86,68,29.95,29.73,20,-516,22,0.13
2013-5-30,84.4,76.5,69.0,72.9,68.1,63.2,90,76,61,29.94,29.82,29,-493,33,0.00
2013-5-31,78.1,72.5,65.8,69.7,66.5,63.7,94,82,67,29.87,29.75,21,-486,24,0.23
2013-6-1,77.8,70.3,63.1,67.2,64.4,61.5,95,82,61,29.76,29.63,29,-608,34,0.67
2013-6-2,63.0,55.2,47.4,61.5,51.2,42.2,96,87,72,30.01,29.62,7,-651,9,0.05
2013-6-3,64.0,57.4,43.0,50.6,45.4,41.0,93,65,51,30.11,30.03,8,-347,12,0.01
2013-6-4,72.2,64.0,49.6,55.2,50.5,43.8,81,62,50,30.18,30.10,7,-246,12,0.00
2013-6-5,71.0,62.3,57.4,51.5,46.7,41.3,76,58,39,30.13,29.97,11,-422,20,0.00
2013-6-6,63.2,59.2,54.2,56.3,52.8,50.5,90,79,70,29.92,29.88,12,-432,13,0.12
2013-6-7,72.8,63.9,50.5,53.9,50.8,48.0,91,64,46,29.93,29.84,15,-457,18,0.00
2013-6-8,73.3,63.5,52.9,57.7,51.8,48.2,92,68,42,30.01,29.88,8,-740,9,0.00
2013-6-9,79.2,68.9,59.6,65.6,59.8,51.5,90,73,58,30.02,29.85,7,-536,13,0.89
2013-6-10,73.0,66.7,62.7,69.2,63.7,59.1,96,90,72,29.86,29.72,9,-571,12,0.20
2013-6-11,78.3,66.9,56.4,69.7,62.5,55.6,98,87,71,29.90,29.79,12,-919,13,0.04
2013-6-12,79.2,70.6,64.7,71.7,66.1,62.3,95,86,76,29.90,29.59,9,-496,12,0.07
2013-6-13,75.3,67.8,60.0,63.9,60.7,55.8,96,79,58,29.95,29.58,12,-387,16,0.35
2013-6-14,73.5,61.4,54.1,59.2,54.9,51.9,93,80,59,30.09,29.95,9,-698,11,0.00
2013-6-15,73.1,65.0,56.1,64.4,59.5,52.3,92,83,70,30.04,29.85,19,-440,23,0.00
2013-6-16,77.1,69.4,63.4,67.3,63.6,60.1,95,83,61,29.87,29.76,14,-590,16,0.25
2013-6-17,81.9,72.0,60.1,66.2,60.7,58.4,95,70,46,29.90,29.82,14,-472,15,0.00
2013-6-18,71.3,65.3,57.2,58.0,51.8,43.6,89,63,44,30.06,29.94,9,-321,15,0.00
2013-6-19,74.9,63.1,50.5,53.9,47.8,42.6,75,59,40,30.16,30.06,7,-555,10,0.00
2013-6-20,82.5,69.8,53.0,61.1,55.2,49.3,90,62,39,30.17,30.09,9,-563,12,0.00
2013-6-21,82.4,74.5,65.7,69.2,64.0,57.8,86,70,58,30.13,29.92,19,-441,24,0.00
2013-6-22,85.0,74.9,68.0,72.3,68.3,65.0,92,81,62,30.08,29.93,14,-468,16,0.00
2013-6-23,86.9,77.9,68.1,73.2,69.1,65.2,92,76,57,30.00,29.90,18,-423,24,0.00
2013-6-24,84.3,76.0,69.2,71.7,68.3,63.7,90,78,59,30.01,29.82,18,-531,22,0.00
2013-6-25,81.3,71.7,66.1,73.3,67.7,63.8,97,88,71,29.95,29.78,12,-695,15,0.38
2013-6-26,82.0,73.7,66.3,73.1,69.1,65.1,96,86,69,29.83,29.69,11,-446,15,0.00
2013-6-27,82.6,75.2,67.9,74.7,69.9,67.0,97,85,63,29.72,29.63,12,-388,16,0.01
2013-6-28,78.2,70.7,63.5,68.4,65.0,62.3,97,83,67,29.63,29.53,12,-573,18,0.02
2013-6-29,73.9,67.6,62.4,66.9,63.0,60.3,97,86,74,29.73,29.54,10,-526,16,0.02
2013-6-30,80.4,73.9,62.6,67.0,60.8,55.1,91,65,49,29.94,29.79,16,-348,21,0.00
2013-7-1,76.5,69.4,56.8,57.1,52.5,45.6,75,56,43,30.07,29.98,15,-314,26,0.00
2013-7-2,65.5,61.5,56.9,61.4,57.4,43.0,96,87,47,30.07,30.01,13,-413,19,0.29
2013-7-3,79.0,70.0,61.4,69.0,64.7,58.7,93,84,68,30.06,30.00,12,-320,18,0.01
2013-7-4,78.2,69.9,62.8,66.7,63.5,59.2,97,82,55,30.10,30.03,12,-650,15,0.00
2013-7-5,83.6,73.4,63.5,69.1,64.8,61.5,94,76,54,30.08,30.00,9,-458,13,0.00
2013-7-6,83.6,75.0,67.7,71.3,67.9,64.5,93,79,61,30.05,29.94,8,-555,10,0.00
2013-7-7,84.1,75.1,69.5,72.5,69.8,67.6,96,84,65,29.99,29.92,14,-489,17,0.00
2013-7-8,78.7,74.5,71.3,74.5,70.9,69.0,96,89,80,29.98,29.91,20,-444,24,0.03
2013-7-9,85.0,74.2,67.4,77.6,71.2,66.5,97,91,72,29.96,29.82,15,-672,18,0.23
2013-7-10,80.1,75.2,65.2,75.4,67.7,56.1,97,79,58,29.94,29.77,13,-513,18,0.00
2013-7-11,67.4,64.7,61.9,60.1,57.8,56.8,84,78,74,30.03,29.94,0,-999,0,0.00
2013-7-12,82.3,71.3,59.0,63.0,58.7,55.4,90,67,43,30.14,30.03,6,-499,11,0.00
2013-7-13,85.3,75.1,62.4,65.5,61.5,58.0,90,65,45,30.16,30.09,5,-472,11,0.00
2013-7-14,89.7,78.4,66.1,71.8,67.6,61.3,88,70,52,30.20,30.15,6,-464,12,0.00
2013-7-15,93.6,82.9,73.7,78.5,73.4,69.3,91,74,52,30.24,30.17,12,-407,13,0.00
2013-7-16,89.8,81.7,73.8,77.1,74.0,71.5,95,79,59,30.26,30.20,12,-548,17,0.00
2013-7-17,91.5,82.5,74.7,78.5,74.5,71.6,93,78,59,30.25,30.12,11,-450,16,0.00
2013-7-18,90.9,82.4,76.1,75.1,73.5,72.2,88,76,58,30.12,29.89,16,-648,18,0.00
2013-7-19,79.7,77.9,76.9,74.0,73.5,73.1,90,87,81,29.90,29.85,0,-999,0,0.00
2013-7-21,85.5,76.9,66.4,67.8,66.6,64.2,94,72,54,29.96,29.86,4,-518,5,0.01
2013-7-22,83.8,73.3,65.3,70.9,67.2,63.0,95,82,59,29.93,29.70,11,-656,15,0.24
2013-7-23,79.3,71.9,59.0,72.6,64.2,50.7,95,78,57,29.86,29.63,13,-495,19,0.01
2013-7-24,75.2,66.2,50.0,55.3,51.9,46.8,92,62,45,30.03,29.98,9,-253,13,0.00
2013-7-25,77.3,69.4,54.9,59.2,56.2,51.6,90,64,50,30.09,30.02,12,-224,16,0.00
2013-7-26,66.1,65.0,64.3,64.0,62.9,61.5,95,93,88,29.93,29.86,10,-642,10,0.32
2013-7-27,69.2,61.6,56.1,62.8,55.6,50.8,97,81,72,29.85,29.80,11,-824,17,0.00
2013-7-28,64.1,58.2,53.8,57.5,54.4,52.7,96,88,69,29.95,29.80,12,-726,15,0.78
2013-7-29,68.1,62.6,57.3,57.8,56.0,54.1,89,79,67,30.18,30.13,7,-434,8,0.06
2013-7-30,78.6,70.0,53.8,64.2,60.4,52.4,96,73,57,30.21,30.08,5,-474,8,0.07
2013-7-31,70.0,66.8,63.4,67.4,64.6,60.7,95,92,89,30.03,29.91,3,-399,9,0.20
2013-8-1,75.8,61.5,63.3,67.0,37.6,-99.9,97,59,54,29.92,29.89,13,-148,16,0.01
2013-8-2,72.5,67.9,61.2,67.1,64.2,59.8,95,88,81,29.89,29.82,17,-266,19,0.05
2013-8-3,76.3,70.9,62.4,65.2,58.5,53.8,94,66,50,30.05,29.97,11,-706,15,0.01
2013-8-4,73.4,66.4,54.7,59.7,55.2,50.3,93,68,53,30.18,30.10,9,-170,13,0.00
2013-8-5,71.5,64.6,52.8,61.4,58.1,50.8,94,80,68,30.08,29.91,10,-602,14,0.00
2013-8-6,76.5,70.6,63.8,70.4,67.0,61.7,94,89,80,29.89,29.83,12,-291,17,0.02
2013-8-7,81.0,72.8,63.4,74.6,68.2,61.9,96,86,74,29.90,29.78,15,-430,19,0.37
2013-8-8,78.1,70.1,58.2,60.3,57.0,55.0,92,65,47,30.01,29.94,7,-310,12,0.00
2013-8-9,78.6,71.5,59.0,64.9,60.6,51.1,82,69,55,29.99,29.94,11,-318,15,0.00
2013-8-10,78.8,69.4,60.7,62.3,58.6,56.0,90,70,47,30.11,29.99,6,-490,12,0.00
2013-8-11,77.2,68.1,59.3,60.4,57.9,55.8,90,71,52,30.10,30.02,0,-987,0,0.00
2013-8-12,74.3,68.2,64.2,70.3,66.4,63.0,97,94,84,29.98,29.83,4,-760,6,1.04
2013-8-13,67.2,60.8,52.0,55.4,51.3,47.8,93,71,58,30.09,29.95,13,-546,18,0.00
2013-8-14,70.1,62.3,47.6,56.0,52.2,44.8,91,71,53,30.20,30.14,7,-159,11,0.00
2013-8-15,74.5,62.1,49.7,61.5,54.4,48.0,96,78,52,30.16,30.08,15,4,0,0.01
2013-8-16,78.7,65.0,54.8,63.0,57.3,53.1,95,78,50,30.18,30.10,5,-140,6,0.00
2013-8-17,80.9,73.8,59.0,63.7,59.3,56.2,92,62,45,30.23,30.15,3,-148,6,0.00
2013-8-18,81.6,73.6,60.0,64.1,60.6,54.6,84,65,51,30.20,30.08,5,-266,11,0.00
2013-8-19,80.7,73.2,57.6,65.7,62.0,56.2,95,69,53,30.10,30.01,11,-337,13,0.00
2013-8-20,83.2,76.9,62.7,71.0,67.5,60.6,93,74,60,30.10,30.03,13,-232,15,0.00
2013-8-21,85.8,78.5,66.1,71.7,68.1,63.1,91,72,55,30.06,29.93,16,-356,20,0.00
2013-8-22,73.9,71.0,65.7,70.5,68.5,64.8,97,92,88,30.05,29.97,9,-536,9,0.11
2013-8-23,81.9,72.2,57.4,60.8,57.0,54.5,91,61,40,30.17,30.10,7,-421,10,0.01
2013-8-24,82.1,70.7,59.0,63.5,59.3,55.7,90,69,45,30.26,30.15,10,-578,15,0.00
2013-8-25,86.1,73.6,61.0,69.1,63.4,57.5,89,72,55,30.24,30.09,21,-691,25,0.00
2013-8-26,83.2,78.7,71.9,73.6,70.3,66.4,83,76,71,30.08,29.94,19,-399,22,0.00
2013-8-27,89.9,83.0,73.2,77.6,74.0,71.6,96,76,60,29.94,29.75,22,-360,28,0.04
2013-8-28,83.4,76.6,72.1,74.4,72.1,69.3,96,86,67,29.99,29.74,9,-579,11,0.01
2013-8-29,88.8,76.9,67.7,72.0,68.8,65.9,96,78,52,30.06,29.95,4,-673,7,0.00
2013-8-30,89.2,76.7,67.4,74.2,70.0,65.6,95,81,58,29.96,29.70,17,-941,17,0.02
2013-8-31,82.8,71.6,63.3,68.9,65.5,61.8,96,82,63,29.83,29.75,6,-662,12,0.00
2013-9-1,84.2,72.3,65.4,72.9,67.5,63.3,94,85,69,29.81,29.67,12,-434,14,0.00
2013-9-2,71.7,65.0,59.7,61.0,57.1,52.1,94,76,63,29.94,29.82,11,-341,17,0.01
2013-9-3,73.2,66.4,55.0,59.0,56.2,50.9,87,70,58,30.04,29.99,10,-268,13,0.00
2013-9-4,78.7,70.2,55.6,64.2,61.1,54.5,96,75,52,30.08,30.02,14,-316,19,0.01
2013-9-5,74.2,65.3,53.7,52.6,47.8,43.9,90,56,36,30.25,30.18,7,-424,13,0.00
2013-9-6,80.0,72.8,66.7,58.8,57.6,54.5,72,60,43,30.09,30.00,8,-536,11,0.00
2013-9-7,71.9,67.3,65.0,65.4,60.4,57.3,86,79,72,30.00,29.94,10,-933,10,0.00
2013-9-9,85.0,75.1,60.6,74.4,69.0,59.2,96,82,67,29.98,29.80,13,-870,14,0.55
2013-9-10,91.5,85.1,74.6,71.0,68.7,66.7,85,59,47,29.94,29.89,22,-362,30,0.00
2013-9-11,87.8,77.2,70.2,72.7,68.7,64.1,92,76,48,30.01,29.93,10,-541,13,0.03
2013-9-12,76.2,71.5,56.4,58.9,56.3,49.6,78,60,54,30.01,29.91,6,-196,8,0.01
2013-9-13,64.3,55.2,47.1,48.5,44.3,40.0,91,69,43,30.13,30.03,18,-465,24,0.00
2013-9-14,68.2,54.9,42.0,54.9,46.7,39.8,94,75,52,30.18,30.05,17,-208,19,0.00
2013-9-15,57.6,53.9,51.5,55.0,47.4,44.3,91,79,68,30.06,30.03,10,-180,15,0.02
2013-9-17,67.6,55.0,42.6,50.4,45.1,40.4,92,72,53,30.38,30.21,1,-499,3,0.00
2013-9-18,54.0,54.0,54.0,50.2,50.2,50.2,87,87,87,30.11,30.11,0,-999,0,0.00
2013-10-6,54.2,54.2,54.2,52.5,52.5,52.5,94,94,94,29.72,29.72,0,-999,0,0.00